Simultaneous Nadir Overpasses (SNOs) Predictions

Prediction of SNOs over PacNW region [( 10.00, 139.50) to ( 22.70, 165.60)] between AQUA and NPP Satellites:

Table of predicted SNOs over PacNW region for the next 30.0 days since TLE Epoch: 9/21/2019
Index Date (AQUA) Time (AQUA) AQUA Lat,Lon Date (NPP) Time (NPP) NPP Lat,Lon Distance(km) Time Diff (sec)
1 09/22/2019 03:31:37 22.70, 147.51 09/22/2019 03:28:07 24.19, 145.38 273.18 210
2 09/27/2019 15:59:14 22.63, 147.48 09/27/2019 16:02:09 23.29, 144.60 304.03 175
3 10/05/2019 15:09:49 22.62, 159.83 10/05/2019 15:11:24 23.21, 157.28 269.20 95
4 10/08/2019 03:31:40 22.65, 147.51 10/08/2019 03:28:11 24.54, 145.32 306.01 209
5 10/13/2019 15:59:16 22.62, 147.46 10/13/2019 16:02:06 23.26, 144.62 299.55 170




NCC Satellite Simultaneous Nadir Overpasses (SNOs) Prediction Service
